Location: Gettysburg
(39.8310°N, 77.2310°W)
Time: 09:30:18
(UTC-05:00)

ATLAS 2AS CENTAUR R/B - Visible Passes

Search period start: 05 December 2016 00:00
Search period end: 15 December 2016 00:00
Orbit: 906 x 1306 km, 63.7° (Epoch: 01 December)

Date Brightness Start Highest point End Pass type
(mag) Time Alt. Az. Time Alt. Az. Time Alt. Az.
05 Dec 3.0 17:39:04 10° NNW 17:47:12 82° NE 17:54:44 10° SE visible
05 Dec 5.2 19:31:43 10° WNW 19:37:14 21° WSW 19:42:30 10° SSW visible
06 Dec 4.6 18:45:57 10° NW 18:52:53 34° WSW 18:59:25 10° S visible
07 Dec 5.9 06:48:07 10° SE 06:52:28 17° ESE 06:56:59 10° ENE visible
07 Dec 3.8 18:00:39 10° NW 18:08:24 54° WSW 18:15:34 10° S visible
08 Dec 3.2 17:15:38 10° NW 17:23:43 81° WSW 17:31:12 10° SSE visible
08 Dec 5.7 19:09:18 10° WNW 19:13:24 15° WSW 19:17:23 10° SW visible
09 Dec 5.2 18:22:57 10° NW 18:29:09 26° WSW 18:35:01 10° SSW visible
10 Dec 5.7 06:23:09 10° SSE 06:28:39 23° ESE 06:34:26 10° ENE visible
10 Dec 4.5 17:37:25 10° NW 17:44:44 41° WSW 17:51:34 10° S visible
11 Dec 6.1 05:41:20 10° SE 05:44:26 13° E 05:47:35 10° ENE visible
11 Dec 6.3 18:48:34 10° W 18:49:32 10° W 18:50:30 10° WSW visible
12 Dec 4.2 06:42:18 10° S 06:49:20 48° ESE 06:56:55 10° NE visible
12 Dec 5.8 18:00:13 10° WNW 18:05:21 19° WSW 18:10:16 10° SW visible
13 Dec 5.0 05:58:37 10° SSE 06:04:53 30° ESE 06:11:32 10° NE visible
13 Dec 5.1 17:14:17 10° NW 17:21:02 31° WSW 17:27:22 10° SSW visible
14 Dec 5.6 05:15:49 10° SE 05:20:35 18° ESE 05:25:32 10° ENE visible
